Regional Weather Roundup
Issued by NWS State College, PA

Home | Current Version | Previous Version | Graphics & Text | Print | Product List | Glossary Off
Versions: 1 2 3 4 5 6 7 8 9 10 11 12 13 14 15 16 17 18 19 20 21 22 23 24 25 26 27 28 29 30 31 32 33 34 35 36 37 38 39 40 41 42 43 44 45 46 47 48 49 50

000
ASUS41 KCTP 292010
RWRCTP

REGIONAL WEATHER ROUNDUP
NATIONAL WEATHER SERVICE STATE COLLEGE PA
400 PM EDT WED JUL 29 2015

Note: "fair" indicates few or no clouds below 12,000 feet with no
significant weather and/or obstructions to visibility.

* = STATION THAT DOES NOT REPORT PRECIPITATION /E.G. RAIN...SNOW...ETC/
    THUNDER OR FOG.

PAZ002>004-007>009-013>016-020>023-029>032-292100-
WESTERN PENNSYLVANIA

CITY           SKY/WX    TMP DP  RH WIND       PRES   REMARKS
ERIE           SUNNY     85  70  60 N7        29.92F
MEADVILLE      PTSUNNY   89  64  43 SW7       29.96F
FRANKLIN*      MOSUNNY   88  64  45 S12       29.98F
NEW CASTLE     FAIR      92  72  51 SW5       29.95F HX  99
BEAVER COUNTY  MOSUNNY   88  70  55 S5        29.96F
BUTLER*        PTSUNNY   90  68  48 CALM      29.98F
PITTSBURGH INT PTSUNNY   89  67  47 SW6       29.95F
PITTSBURGH     PTSUNNY   89  64  43 S6        29.95F
INDIANA*       CLOUDY    86  70  58 VRB3      30.01F
LATROBE        MOSUNNY   90  70  51 CALM      29.97F HX  95
WASHINGTON CO* NOT AVBL
$$

PAZ004>006-010>012-017>019-024>028-033>037-041-042-045-046-049>053-292100-
CENTRAL PENNSYLVANIA

CITY           SKY/WX    TMP DP  RH WIND       PRES   REMARKS
BRADFORD       MOSUNNY   83  62  49 S10       30.02F
DUBOIS         PTSUNNY   87  67  51 VRB6      30.00F
CLEARFIELD     PTSUNNY   86  66  51 S5        30.00F
JOHNSTOWN      MOSUNNY   81  66  60 SE6       30.03F
ALTOONA        MOSUNNY   86  70  58 VRB5      30.01F
STATE COLLEGE  MOSUNNY   84  68  58 S6        29.99F
WILLIAMSPORT   MOSUNNY   89  67  47 VRB5      29.94F
SELINSGROVE    MOSUNNY   89  70  53 SW6       29.96F
FT INDIANTOWN  MOSUNNY   88  69  54 S6        29.96F
CAPITAL CITY   MOSUNNY   91  70  49 SW9       29.95F HX  96
HARRISBURG     PTSUNNY   90  72  55 S3        29.94F HX  97
YORK           MOSUNNY   86  74  67 W3        29.97F
$$

PAZ038>040-043-044-047-048-054-055-060>062-067>071-292100-
EASTERN PENNSYLVANIA

CITY           SKY/WX    TMP DP  RH WIND       PRES   REMARKS
SCRANTON       PTSUNNY   91  63  39 SW9G20    29.97F
MOUNT POCONO     N/A    N/A N/A N/A MISG      30.04F
ALLENTOWN      MOSUNNY   91  67  44 SW5       29.95F
QUAKERTOWN*    CLEAR     91  66  43 W6        29.97F
READING        MOSUNNY   92  65  40 VRB7      29.95F
LANCASTER      MOSUNNY   87  70  56 S6        29.96F
COATESVILLE    PTCLDY    86  75  70 S5        29.99F HX  95
POTTSTOWN      SUNNY     89  67  47 SW7       29.97F
BLUE BELL      SUNNY     91  66  43 SW3       29.95F
DOYLESTOWN     MOSUNNY   88  65  46 VRB5      29.95F
WILLOW GROVE   NOT AVBL
NORTH PHILA    MOSUNNY   93  62  35 VRB7      29.95F
PHILADELPHIA   PTSUNNY   93  68  43 SW10      29.95F HX  97
$$



USA.gov is the U.S. government's official web portal to all federal, state and local government web resources and services.